FENGYUN 1C DEB *, 47036

Orbit data source: Space-Track

FENGYUN 1C DEB *, 47036 is space debris in SSO originally from a launch on Mon, 10 May 1999 UTC launched from the Taiyaun Space Center, China (TSC). Fengyun 1C debris stems from the Chinese weather satellite Fengyun-1C, which was intentionally destroyed by a Chinese anti-satellite missile in 2007. This event dramatically increased the amount of space debris, with thousands of trackable fragments posing hazards to satellites and human spaceflight. The Fengyun 1C debris cloud has become a focal point in discussions about space sustainability and the need for international regulations to prevent the creation of new debris.

Loading next visibility...
Identifier
47036, 1999-025FBN
Orbit
SSO
Country
Flag of CNCN / PRC
Related business
Manufacturer
Unknown
Mission
Spacecraft
Bus & Motor
Unknown
Mass
Unknown
Launch date (UTC)
1999-05-10 (26 years ago)
Launch vehicle
Unknown
Launch site
Taiyaun Space Center, China (TSC)
Object type
Payload
Rocket body
Debris
Shape & HBR
Unknown shape, 0.1 m
Radar Cross Section
Small (<0.1 m²)

Expand to show TLE details & history
Last TLE update: 3 days ago

TLE from 3 days ago
0 FENGYUN 1C DEB *
1 47036U 99025FBN 25298.37696477  .00000373  00000-0  21026-3 0  9997
2 47036  98.7287 342.8472 0067063 235.1779 145.6497 14.15132161592433
Epoch: 2025-10-25T09:02Z
TLE epoch observation values (Epoch: 2025-10-25T09:02:49.756Z)
Latitude
21.00907°
Longitude
169.7689°
Altitude
884.53 km
Speed
7.391 km/s
True Right ascension
22h 37m 56s
True Declination
20° 53' 46"
Sunlit
Object was in full shadow at epoch
Visualization orbit readout
Latitude
Unknown
Longitude
Unknown
Altitude
Unknown
Speed
Unknown
Apparent Right ascension
Unknown
Apparent Declination
Unknown
Sunlit
N/A
Visualization observer readout
Local Sidereal Time
23:41:01
Azimuth
Unknown
Elevation
Unknown
Doppler factor
Unknown
Orbital elements
Apogee altitude
887.429 km
Perigee altitude
790.628 km
Semi-major axis
7,217.165 km
Eccentricity
0.00671
Inclination
98.7287°
RAAN
342.8472°
Arg. of periapsis
235.1779°
True anomaly
146.08033°
Mean anomaly
145.6497°
Eccentric anomaly
145.86531°
Mean motion
3.53992 °/min
Orbital period
101.7 mins
BSTAR
0.00021026
Loading maneuver chart data...
Computing Atmospheric mass density...

Documentation

Showing up to 5 results
|